Weather History for Toledo Metcalf, OH

Change the Weather History Date:

Wednesday, July 3, 2013

  Actual Average (KTOL) Record (KTOL)
Temperature  
Mean Temperature 73 °F 73 °F  
Max Temperature 84 °F 85 °F 100 °F (1911)
Min Temperature 64 °F 62 °F 47 °F (1988)
Degree Days  
Heating Degree Days 0 0  
Month to date heating degree days 0  
Since 1 June heating degree days 35  
Since 1 July heating degree days 0  
Cooling Degree Days 8 9  
Month to date cooling degree days 25  
Year to date cooling degree days 248  
Since 1 June cooling degree days 195  
Growing Degree Days 23 (Base 50)    
Moisture  
Dew Point 65 °F    
Average Humidity 82    
Maximum Humidity 100    
Minimum Humidity 54    
Precipitation  
Precipitation 0.01 in 0.10 in 2.19 in (1975)
Month to date precipitation 0.31  
Year to date precipitation 17.25  
Snow  
Snow 0.00 in 0.00 in - ()
Month to date snowfall 0.0  
Since 1 June snowfall 0.0  
Since 1 July snowfall 0.0  
Snow Depth -    
Sea Level Pressure  
Sea Level Pressure 30.07 in    
Wind  
Wind Speed 4 mph (SSE)    
Max Wind Speed 12 mph    
Max Gust Speed -    
Visibility 6 miles    
Events      
T = Trace of Precipitation, MM = Missing Value Source: NWS Daily Summary

Daily Weather History Graph

Daily Weather History Graph

Search for Another Location

Airport:

Trip Planner

Search our weather history database for the weather conditions in past years. The results will help you decide how hot, cold, wet, or windy it might be!

Date:

Astronomy

Jul. 03, 2013 Rise Set
Actual Time 6:04 AM EDT 9:11 PM EDT
Civil Twilight 5:31 AM EDT 9:45 PM EDT
Nautical Twilight 4:47 AM EDT 10:28 PM EDT
Astronomical Twilight 3:56 AM EDT 11:19 PM EDT
Moon 2:43 AM EDT (7/3) 5:19 PM EDT (7/3)
Length of Visible Light 16h 14m
Length of Day
15h 06m
Waning Crescent, 18% of the Moon is Illuminated
Jul 3
Waning Crescent
Jul 8
New
Jul 15
First Quarter
Jul 22
Full
Jul 29
Last Quarter

Hourly Weather History & Observations

Time (EDT) Temp. Heat Index Dew Point Humidity Pressure Visibility Wind Dir Wind Speed Gust Speed Precip Events Conditions
12:53 AM 66.0 °F - 63.0 °F 90% 30.06 in 10.0 mi NE 4.6 mph - 0.00 in   Partly Cloudy
1:53 AM 66.0 °F - 63.0 °F 90% 30.06 in 9.0 mi ENE 3.5 mph - N/A   Clear
2:53 AM 66.0 °F - 64.0 °F 93% 30.05 in 5.0 mi Calm Calm - N/A   Clear
3:53 AM 64.9 °F - 63.0 °F 93% 30.04 in 3.0 mi ENE 3.5 mph - N/A   Clear
4:53 AM 64.0 °F - 63.0 °F 96% 30.04 in 3.0 mi ESE 3.5 mph - 0.01 in   Clear
4:57 AM 64.4 °F - 62.6 °F 94% 30.05 in 1.8 mi East 3.5 mph - N/A   Clear
5:07 AM 64.4 °F - 62.6 °F 94% 30.05 in 3.0 mi Calm Calm - N/A   Clear
5:23 AM 64.4 °F - 62.6 °F 94% 30.05 in 2.5 mi East 5.8 mph - N/A   Clear
5:30 AM 64.4 °F - 64.4 °F 100% 30.05 in 4.0 mi Calm Calm - N/A   Clear
5:53 AM 66.0 °F - 64.0 °F 93% 30.05 in 4.0 mi Calm Calm - N/A   Partly Cloudy
6:24 AM 64.4 °F - 64.4 °F 100% 30.07 in 2.0 mi Calm Calm - N/A   Partly Cloudy
6:33 AM 64.4 °F - 64.4 °F 100% 30.07 in 1.8 mi Calm Calm - N/A   Clear
6:53 AM 64.9 °F - 64.0 °F 97% 30.07 in 1.5 mi Calm Calm - N/A   Clear
7:06 AM 66.2 °F - 64.4 °F 94% 30.08 in 2.5 mi Calm Calm - N/A   Clear
7:18 AM 66.2 °F - 66.2 °F 100% 30.08 in 3.0 mi Calm Calm - N/A   Partly Cloudy
7:53 AM 68.0 °F - 66.0 °F 93% 30.08 in 4.0 mi SE 3.5 mph - N/A   Clear
8:53 AM 69.1 °F - 66.9 °F 93% 30.09 in 4.0 mi SSE 4.6 mph - N/A   Scattered Clouds
9:31 AM 69.8 °F - 66.2 °F 88% 30.11 in 5.0 mi South 5.8 mph - N/A   Mostly Cloudy
9:53 AM 70.0 °F - 66.9 °F 90% 30.11 in 6.0 mi SSW 6.9 mph - N/A   Mostly Cloudy
10:53 AM 73.9 °F - 68.0 °F 82% 30.11 in 9.0 mi Variable 4.6 mph - N/A   Clear
11:53 AM 78.1 °F - 66.9 °F 68% 30.11 in 10.0 mi SW 5.8 mph - N/A   Partly Cloudy
12:53 PM 80.1 °F 82.1 °F 66.0 °F 62% 30.10 in 10.0 mi SSW 8.1 mph - N/A   Mostly Cloudy
1:53 PM 82.9 °F 84.6 °F 64.9 °F 54% 30.09 in 10.0 mi South 11.5 mph - N/A   Scattered Clouds
2:53 PM 82.9 °F 84.6 °F 64.9 °F 54% 30.08 in 10.0 mi South 10.4 mph - N/A   Scattered Clouds
3:53 PM 82.0 °F 83.8 °F 64.9 °F 56% 30.08 in 10.0 mi South 11.5 mph - N/A   Partly Cloudy
4:53 PM 82.0 °F 83.4 °F 64.0 °F 54% 30.07 in 10.0 mi SSW 9.2 mph - N/A   Scattered Clouds
5:53 PM 82.0 °F 83.4 °F 64.0 °F 54% 30.06 in 10.0 mi SSW 10.4 mph - N/A   Clear
6:53 PM 81.0 °F 83.0 °F 66.0 °F 60% 30.06 in 10.0 mi SSW 5.8 mph - N/A   Partly Cloudy
7:53 PM 79.0 °F - 66.9 °F 66% 30.06 in 10.0 mi South 4.6 mph - N/A   Clear
8:53 PM 75.9 °F - 66.9 °F 74% 30.07 in 10.0 mi SSE 3.5 mph - N/A   Clear
9:53 PM 73.9 °F - 66.0 °F 76% 30.09 in 10.0 mi South 4.6 mph - N/A   Clear
10:53 PM 73.0 °F - 66.0 °F 79% 30.10 in 10.0 mi South 3.5 mph - N/A   Scattered Clouds
11:53 PM 72.0 °F - 66.0 °F 81% 30.09 in 10.0 mi SSE 4.6 mph - N/A   Mostly Cloudy